Theta_e
282 284 284 285 286 287 288 290 293 299 299 300 303 305 307 308 309 310 311 312 315 316
282 283 283 284 287 287 289 293 296 299 301 301 303 306 305 306 305 306 307 309 313 314
281 282 284 285 285 287 289 293 294 297 299 299 299 300 301 302 303 303 303 306 308 314
281 282 284 285 287 288 290 291 294 294 296 298 298 299 299 299 300 300 302 302 302 307
280 282 284 285 288 290 289 291 293 292 293 294 294 294 296 295 297 297 298 300 301 303
280 282 283 286 288 289 289 290 291 290 290 290 291 292 292 292 293 294 294 296 297 300
281 283 284 286 287 288 287 288 288 288 288 288 289 290 290 290 290 289 289 290 291 292
281 283 284 285 286 286 286 285 286 286 286 287 288 289 288 288 287 287 286 286 287 287
281 282 282 283 284 284 284 284 284 284 285 285 287 289 289 287 285 285 285 285 285 286
279 280 281 282 283 283 283 283 283 284 285 285 285 287 287 285 284 284 284 284 285 285
278 278 280 280 281 282 283 282 282 282 283 284 285 287 286 285 283 283 283 283 284 284
278 278 278 278 279 279 279 279 281 282 282 283 284 287 286 284 283 283 283 283 283 284
279 278 278 279 279 279 279 279 280 280 282 283 283 286 286 284 283 282 282 282 283 285
279 279 279 279 279 279 279 279 279 279 280 281 282 284 285 285 281 281 280 281 281 282
Wind_Speed
14 10 11 14 12 10 11 11 15 16 13 14 14 15 16 11 10 9 8 8 9 7
12 13 13 16 12 10 12 11 15 15 11 14 13 11 7 4 4 5 3 5 7 6
13 13 13 13 14 14 12 12 13 12 8 1 4 4 4 2 3 3 2 2 2 4
13 13 13 11 11 10 11 10 11 6 8 4 4 5 3 2 1 2 2 3 3 5
13 13 11 11 10 9 9 8 8 6 7 5 4 4 4 2 2 1 3 4 4 6
12 11 10 10 8 8 8 5 5 4 5 7 2 1 5 3 1 1 2 3 3 5
10 10 9 8 7 5 5 5 2 2 4 3 3 6 4 3 3 2 2 2 1 3
9 8 8 6 6 5 4 5 7 7 6 7 6 4 3 3 3 4 5 4 3 6
9 8 7 7 7 6 7 7 7 7 6 6 4 8 8 5 5 6 5 4 5 7
9 9 9 8 7 7 7 6 7 7 6 7 7 12 13 13 7 7 7 6 7 7
8 8 9 9 9 8 6 7 8 8 9 9 9 15 16 16 9 9 9 10 10 9
8 8 9 10 9 9 8 9 9 9 10 11 10 16 15 11 9 11 13 13 10 10
7 8 8 8 8 8 7 9 9 11 12 14 13 21 20 11 6 10 10 12 13 21
7 7 7 7 8 8 9 9 10 11 11 11 13 17 23 22 11 9 10 11 11 10
Wind_Direction
283 276 281 279 280 286 287 285 284 268 242 239 238 236 228 221 216 209 217 224 220 228
288 286 283 284 284 283 284 282 293 306 260 239 237 229 194 179 209 212 194 218 228 223
295 289 284 288 289 288 285 287 300 314 302 268 139 147 106 174 192 217 209 246 279 256
296 293 296 291 285 286 285 291 294 320 295 279 148 109 108 183 274 303 343 277 263 266
298 300 298 294 296 290 288 286 299 327 327 290 47 68 98 59 3 345 309 300 307 277
300 301 302 301 299 293 304 326 319 334 294 17 349 265 76 56 351 319 287 283 295 292
312 311 310 311 313 320 321 334 310 13 31 356 13 44 30 38 64 84 46 350 348 312
320 324 326 336 350 4 7 13 14 5 6 14 18 18 43 71 79 95 87 48 61 43
338 340 351 355 2 15 27 26 22 15 13 14 15 49 82 93 83 77 76 81 59 45
348 356 0 2 15 23 28 27 28 22 20 35 38 67 83 79 70 69 62 65 67 61
356 1 6 16 17 19 23 31 34 29 30 39 52 67 74 76 74 71 66 61 57 61
2 10 14 20 20 23 32 33 31 34 35 46 49 51 51 56 68 71 66 60 51 57
4 17 22 23 26 25 33 41 39 37 35 39 47 49 51 45 56 63 64 59 54 59
7 14 18 26 24 26 33 38 36 41 35 39 40 50 53 51 48 50 58 57 53 50